CZ-6A DEB, 54896

Orbit data source: Space-Track

CZ-6A DEB, 54896 is space debris in SSO originally from a launch on Fri, 11 Nov 2022 UTC launched from the Taiyaun Space Center, China (TSC). Debris objects in space refer to the collection of defunct objects orbiting the Earth. Examples of debris include non-operational satellites, rocket bodies, and fragments generated from explosions, collisions, or faulty payload assembly.

Loading next visibility...
Identifier
54896, 2022-151QH
Orbit
SSO
Country
Flag of CNCN / PRC
Related business
Manufacturer
SAST
Mission
Spacecraft
Bus & Motor
Unknown
Mass
Unknown
Launch date (UTC)
2022-11-11 (3 years ago)
Launch vehicle
Unknown
Launch site
Taiyaun Space Center, China (TSC)
Object type
Payload
Rocket body
Debris
Shape & HBR
Unknown shape, 0.1 m
Radar Cross Section
Small (<0.1 m²)

Expand to show TLE details & history
Last TLE update: 11 hours ago

TLE from 11 hours ago
0 CZ-6A DEB
1 54896U 22151QH  25352.26566932  .00000369  00000-0  24854-3 0  9993
2 54896  98.8431 341.3374 0064614 150.7564 209.7246 14.05571898156225
Epoch: 2025-12-18T06:22Z
TLE epoch observation values (Epoch: 2025-12-18T06:22:33.829Z)
Latitude
Longitude
158.57279°
Altitude
918.233 km
Speed
7.372 km/s
True Right ascension
22h 45m 20s
True Declination
0° 00' 00"
Sunlit
Object was in daylight at epoch
Visualization orbit readout
Latitude
Unknown
Longitude
Unknown
Altitude
Unknown
Speed
Unknown
Apparent Right ascension
Unknown
Apparent Declination
Unknown
Sunlit
N/A
Visualization observer readout
Local Sidereal Time
16:18:49
Azimuth
Unknown
Elevation
Unknown
Doppler factor
Unknown
Orbital elements
Apogee altitude
918.593 km
Perigee altitude
824.904 km
Semi-major axis
7,249.886 km
Eccentricity
0.00646
Inclination
98.8431°
RAAN
341.3374°
Arg. of periapsis
150.7564°
True anomaly
209.36004°
Mean anomaly
209.7246°
Eccentric anomaly
209.54206°
Mean motion
3.51598 °/min
Orbital period
102.39 mins
BSTAR
0.00024854
Loading maneuver chart data...
Computing Atmospheric mass density...
Loading historical data...
Loading historical data...
Loading historical data...
Loading historical data...
Loading historical data...
Loading historical data...
Loading historical data...

Documentation

Showing up to 5 results
|